FW9028 Weather Reports


time (UTC)temp
C
wind
direction
speed
KPH
gust
KPH
rain 1hr
cm
rain 24hr
cm
rain mn
cm
humidity
%
barometer
mb
20260508125553 30 72 4.8 14.5 0.00 0.00 0.00 72 1011.0
20260508125053 30 91 4.8 19.3 0.00 0.00 0.00 72 1011.0
20260508124553 30 105 8.0 19.3 0.00 0.00 0.00 72 1010.8
20260508124053 30 101 9.7 20.9 0.00 0.00 0.00 72 1011.0
20260508123553 30 93 12.9 20.9 0.00 0.00 0.00 72 1010.7
20260508123053 30 86 4.8 17.7 0.00 0.00 0.00 72 1010.5
20260508122553 30 112 3.2 22.5 0.00 0.00 0.00 71 1010.7
20260508122053 30 76 14.5 22.5 0.00 0.00 0.00 70 1010.6
20260508121053 30 158 3.2 22.5 0.00 0.00 0.00 71 1010.4
20260508120553 30 129 9.7 22.5 0.00 0.00 0.00 71 1010.4
20260508120053 30 112 11.3 17.7 0.00 0.00 0.00 70 1010.0
20260508115553 30 108 9.7 17.7 0.00 0.00 0.00 71 1010.1
20260508115053 30 133 4.8 14.5 0.00 0.00 0.00 71 1009.8
20260508114554 30 127 4.8 17.7 0.00 0.00 0.00 70 1009.8
20260508114053 30 54 1.6 17.7 0.00 0.00 0.00 70 1009.9
20260508113553 30 177 3.2 20.9 0.00 0.00 0.00 70 1009.7
20260508112553 30 185 3.2 19.3 0.00 0.00 0.00 69 1009.8
20260508112055 31 134 1.6 19.3 0.00 0.00 0.00 68 1009.7
20260508111053 31 116 14.5 19.3 0.00 0.00 0.00 69 1009.4
20260508110553 31 118 8.0 16.1 0.00 0.00 0.00 69 1009.4
20260508110054 31 196 3.2 22.5 0.00 0.00 0.00 69 1009.3
20260508105553 31 213 1.6 22.5 0.00 0.00 0.00 68 1009.4
20260508105053 31 157 3.2 19.3 0.00 0.00 0.00 69 1009.0
20260508104553 31 159 4.8 19.3 0.00 0.00 0.00 69 1009.2
20260508104053 31 109 12.9 19.3 0.00 0.00 0.00 68 1009.0
20260508103553 31 176 3.2 19.3 0.00 0.00 0.00 67 1008.9
20260508103053 31 111 11.3 20.9 0.00 0.00 0.00 67 1008.7
20260508102053 31 156 9.7 22.5 0.00 0.00 0.00 68 1008.8
20260508101553 31 112 12.9 22.5 0.00 0.00 0.00 68 1008.7
20260508101053 31 140 8.0 22.5 0.00 0.00 0.00 67 1008.7
20260508100553 31 79 14.5 25.7 0.00 0.00 0.00 67 1008.6
20260508100053 31 104 11.3 25.7 0.00 0.00 0.00 67 1008.7
20260508095553 32 89 6.4 22.5 0.00 0.00 0.00 68 1008.4
20260508095053 32 149 4.8 22.5 0.00 0.00 0.00 68 1008.4
20260508094553 32 126 6.4 24.1 0.00 0.00 0.00 66 1008.1
20260508094054 32 70 6.4 24.1 0.00 0.00 0.00 65 1008.2
20260508093553 32 111 11.3 19.3 0.00 0.00 0.00 65 1008.0
20260508093053 32 103 4.8 25.7 0.00 0.00 0.00 64 1007.9
20260508092553 32 147 9.7 25.7 0.00 0.00 0.00 64 1007.9
20260508092053 32 114 8.0 29.0 0.00 0.00 0.00 63 1007.9
20260508091554 33 85 8.0 29.0 0.00 0.00 0.00 64 1008.0
20260508091053 33 156 9.7 22.5 0.00 0.00 0.00 63 1008.0
20260508090053 33 75 8.0 19.3 0.00 0.00 0.00 63 1007.6
20260508085553 33 155 11.3 22.5 0.00 0.00 0.00 62 1007.7
20260508085053 33 144 3.2 22.5 0.00 0.00 0.00 62 1007.9
20260508084053 33 114 6.4 22.5 0.00 0.00 0.00 61 1007.6
20260508083554 33 94 8.0 22.5 0.00 0.00 0.00 60 1007.6
20260508082553 33 108 8.0 29.0 0.00 0.00 0.00 60 1007.5
20260508082053 33 141 8.0 24.1 0.00 0.00 0.00 58 1007.4
20260508081553 33 154 11.3 24.1 0.00 0.00 0.00 58 1007.4
20260508081053 33 113 3.2 20.9 0.00 0.00 0.00 58 1007.4
20260508080553 34 109 14.5 24.1 0.00 0.00 0.00 57 1007.5
20260508080053 34 102 9.7 24.1 0.00 0.00 0.00 56 1007.3
20260508075553 34 94 8.0 29.0 0.00 0.00 0.00 55 1007.3
20260508075053 33 99 4.8 29.0 0.00 0.00 0.00 55 1007.4
20260508074053 33 130 8.0 30.6 0.00 0.00 0.00 55 1007.4
20260508073553 34 105 16.1 27.4 0.00 0.00 0.00 54 1007.4
20260508073053 34 126 11.3 29.0 0.00 0.00 0.00 55 1007.3
20260508072053 34 105 8.0 29.0 0.00 0.00 0.00 55 1007.5
20260508071553 34 94 11.3 29.0 0.00 0.00 0.00 54 1007.3
20260508071054 33 105 6.4 29.0 0.00 0.00 0.00 54 1007.3
20260508070553 34 95 6.4 29.0 0.00 0.00 0.00 54 1007.6
20260508070053 34 121 19.3 24.1 0.00 0.00 0.00 54 1007.7
20260508065553 34 111 9.7 24.1 0.00 0.00 0.00 55 1007.6
20260508064552 34 150 6.4 29.0 0.00 0.00 0.00 54 1007.7
20260508064053 34 106 14.5 29.0 0.00 0.00 0.00 55 1007.7
20260508063553 34 110 20.9 29.0 0.00 0.00 0.00 54 1007.6
20260508063053 34 87 11.3 29.0 0.00 0.00 0.00 54 1007.8
20260508062553 34 106 9.7 30.6 0.00 0.00 0.00 55 1007.7
20260508062053 34 96 17.7 30.6 0.00 0.00 0.00 55 1008.1
20260508060053 34 76 6.4 30.6 0.00 0.00 0.00 56 1008.1
20260508055554 35 125 24.1 30.6 0.00 0.00 0.00 54 1008.0
20260508054553 35 159 8.0 24.1 0.00 0.00 0.00 54 1008.3
20260508054053 35 67 6.4 20.9 0.00 0.00 0.00 54 1008.4
20260508053553 35 162 8.0 20.9 0.00 0.00 0.00 54 1008.5
20260508053053 35 127 8.0 24.1 0.00 0.00 0.00 54 1008.3
20260508052554 34 139 14.5 29.0 0.00 0.00 0.00 55 1008.6
20260508051053 34 88 8.0 30.6 0.00 0.00 0.00 56 1008.8
20260508050554 33 93 14.5 30.6 0.00 0.00 0.00 56 1009.1
20260508050053 34 117 9.7 24.1 0.00 0.00 0.00 57 1009.0
20260508045553 34 119 14.5 24.1 0.00 0.00 0.00 57 1009.2
20260508045053 34 120 8.0 24.1 0.00 0.00 0.00 57 1009.2
20260508044553 33 95 12.9 24.1 0.00 0.00 0.00 57 1009.4
20260508044052 34 115 16.1 20.9 0.00 0.00 0.00 57 1009.2
20260508043553 33 99 4.8 27.4 0.00 0.00 0.00 59 1009.5
20260508043053 33 131 11.3 27.4 0.00 0.00 0.00 61 1009.5
20260508042553 33 116 19.3 30.6 0.00 0.00 0.00 60 1009.8
20260508041553 33 104 12.9 24.1 0.00 0.00 0.00 62 1009.6
20260508041053 33 140 17.7 24.1 0.00 0.00 0.00 62 1009.8
20260508040553 33 102 19.3 25.7 0.00 0.00 0.00 61 1009.8
20260508040053 33 117 12.9 25.7 0.00 0.00 0.00 62 1009.8
20260508035553 33 131 17.7 25.7 0.00 0.00 0.00 62 1010.1
20260508035053 32 113 8.0 24.1 0.00 0.00 0.00 65 1010.0
20260508034053 32 113 14.5 22.5 0.00 0.00 0.00 65 1009.9
20260508033553 32 172 11.3 22.5 0.00 0.00 0.00 65 1010.1
20260508033053 32 137 11.3 24.1 0.00 0.00 0.00 66 1010.1
20260508032553 32 140 14.5 24.1 0.00 0.00 0.00 65 1010.1
20260508032054 32 146 9.7 24.1 0.00 0.00 0.00 66 1010.2
20260508031553 32 94 20.9 24.1 0.00 0.00 0.00 66 1010.3
20260508031053 32 78 3.2 24.1 0.00 0.00 0.00 67 1010.4
20260508030553 32 142 17.7 22.5 0.00 0.00 0.00 66 1010.6
20260508030054 32 82 4.8 22.5 0.00 0.00 0.00 68 1010.4
20260508025553 32 134 8.0 20.9 0.00 0.00 0.00 69 1010.7
20260508025053 31 108 4.8 24.1 0.00 0.00 0.00 70 1010.6
20260508024554 31 96 17.7 24.1 0.00 0.00 0.00 71 1010.9
20260508024053 31 188 9.7 22.5 0.00 0.00 0.00 70 1010.7
20260508023053 31 114 12.9 17.7 0.00 0.00 0.00 72 1010.9
20260508022553 31 138 11.3 22.5 0.00 0.00 0.00 72 1011.2
20260508022053 30 121 11.3 24.1 0.00 0.00 0.00 72 1011.2
20260508021553 31 112 8.0 24.1 0.00 0.00 0.00 72 1011.4
20260508020553 30 100 6.4 20.9 0.00 0.00 0.00 73 1011.2
20260508020054 31 135 11.3 27.4 0.00 0.00 0.00 73 1011.5
20260508015553 31 144 19.3 27.4 0.00 0.00 0.00 72 1011.2
20260508015053 31 104 6.4 25.7 0.00 0.00 0.00 72 1011.4
20260508014553 31 122 14.5 20.9 0.00 0.00 0.00 71 1011.4
20260508014054 31 116 14.5 20.9 0.00 0.00 0.00 73 1011.5
20260508013553 31 72 4.8 22.5 0.00 0.00 0.00 73 1011.5
20260508013053 31 151 4.8 24.1 0.00 0.00 0.00 73 1011.4
20260508012553 30 138 16.1 24.1 0.00 0.00 0.00 73 1011.7
20260508012054 30 102 9.7 24.1 0.00 0.00 0.00 75 1011.5
20260508011053 30 96 3.2 24.1 0.00 0.00 0.00 76 1011.7
20260508010553 30 93 3.2 24.1 0.00 0.00 0.00 75 1011.7
20260508005553 30 140 6.4 22.5 0.00 0.00 0.00 74 1011.5
20260508004553 30 112 19.3 30.6 0.00 0.00 0.00 73 1011.6
20260508004053 31 109 11.3 24.1 0.00 0.00 0.00 72 1011.6
20260508003553 30 134 14.5 24.1 0.00 0.00 0.00 73 1011.6
20260508003053 30 89 9.7 25.7 0.00 0.00 0.00 74 1011.5
20260508002553 30 106 17.7 25.7 0.00 0.00 0.00 73 1011.6
20260508002053 30 121 6.4 20.9 0.00 0.00 0.00 73 1011.8
20260508001553 30 101 16.1 24.1 0.00 0.00 0.00 73 1011.6
20260508001053 30 120 11.3 24.1 0.00 0.00 0.00 72 1011.4
20260508000553 30 132 4.8 20.9 0.00 0.00 0.00 74 1011.3
20260508000054 30 122 11.3 22.5 0.00 0.00 0.00 74 1011.3
20260507235053 30 70 3.2 20.9 0.00 0.00 0.00 76 1011.2
20260507234554 30 114 16.1 20.9 0.00 0.00 0.00 75 1011.5
20260507234053 30 149 8.0 20.9 0.00 0.00 0.00 77 1011.4
20260507233053 29 141 6.4 19.3 0.00 0.00 0.00 78 1011.1
20260507232553 29 115 12.9 19.3 0.00 0.00 0.00 76 1010.9
20260507232053 29 81 6.4 19.3 0.00 0.00 0.00 77 1010.8
20260507231053 29 117 9.7 19.3 0.00 0.00 0.00 78 1011.1
20260507230553 28 122 6.4 19.3 0.00 0.00 0.00 78 1011.0
20260507230053 28 87 6.4 19.3 0.00 0.00 0.00 78 1010.9
20260507225553 28 117 6.4 22.5 0.00 0.00 0.00 79 1010.7
20260507225053 28 104 12.9 22.5 0.00 0.00 0.00 81 1010.8
20260507224553 28 73 6.4 17.7 0.00 0.00 0.00 84 1010.7
20260507224054 28 103 8.0 19.3 0.00 0.00 0.00 85 1010.7
20260507223553 28 100 4.8 19.3 0.00 0.00 0.00 85 1010.8
20260507223053 28 153 6.4 17.7 0.00 0.00 0.00 85 1010.7
20260507222553 27 100 9.7 17.7 0.00 0.00 0.00 85 1010.8
20260507222053 27 123 6.4 14.5 0.00 0.00 0.00 85 1010.5
20260507221554 27 101 4.8 14.5 0.00 0.00 0.00 85 1010.9
20260507221053 27 100 9.7 9.7 0.00 0.00 0.00 85 1010.6
20260507220553 27 134 3.2 9.7 0.00 0.00 0.00 84 1010.5
20260507220053 27 120 6.4 9.7 0.00 0.00 0.00 84 1010.5
20260507214553 27 132 3.2 12.9 0.00 0.00 0.00 85 1010.1
20260507214053 27 117 4.8 12.9 0.00 0.00 0.00 85 1010.3
20260507213553 27 135 8.0 11.3 0.00 0.00 0.00 86 1010.3
20260507213054 27 164 3.2 11.3 0.00 0.00 0.00 86 1010.2
20260507212553 27 118 6.4 11.3 0.00 0.00 0.00 86 1010.0
20260507212053 27 117 3.2 14.5 0.00 0.00 0.00 86 1010.0
20260507211553 27 171 6.4 20.9 0.00 0.00 0.00 86 1009.9
20260507211053 27 106 6.4 20.9 0.00 0.00 0.00 85 1009.9
20260507210553 27 110 9.7 22.5 0.00 0.00 0.00 84 1009.9
20260507210053 28 127 4.8 22.5 0.00 0.00 0.00 83 1010.0
20260507205553 28 125 16.1 20.9 0.00 0.00 0.00 82 1009.9
20260507205053 28 85 8.0 17.7 0.00 0.00 0.00 82 1009.8
20260507204554 28 128 11.3 27.4 0.00 0.00 0.00 82 1009.8
20260507204053 28 125 11.3 27.4 0.00 0.00 0.00 82 1009.7
20260507203553 28 123 8.0 20.9 0.00 0.00 0.00 81 1009.9
20260507203053 28 111 14.5 24.1 0.00 0.00 0.00 82 1009.8
20260507202553 28 133 8.0 24.1 0.00 0.00 0.00 81 1009.7
20260507202054 28 70 3.2 19.3 0.00 0.00 0.00 81 1009.7
20260507201553 28 125 6.4 17.7 0.00 0.00 0.00 81 1009.8
20260507201053 28 94 8.0 17.7 0.00 0.00 0.00 81 1009.6
20260507200553 28 109 3.2 20.9 0.00 0.00 0.00 81 1009.5
20260507200053 28 122 9.7 20.9 0.00 0.00 0.00 81 1009.5
20260507195054 28 114 3.2 19.3 0.00 0.00 0.00 81 1009.5
20260507193553 28 94 8.0 20.9 0.00 0.00 0.00 80 1009.5
20260507192553 28 174 6.4 24.1 0.00 0.00 0.00 79 1009.3
20260507192053 28 109 9.7 24.1 0.00 0.00 0.00 79 1009.3
20260507191553 28 113 9.7 22.5 0.00 0.00 0.00 79 1009.3
20260507191053 28 107 8.0 19.3 0.00 0.00 0.00 79 1009.4
20260507190553 28 105 8.0 22.5 0.00 0.00 0.00 78 1009.3
20260507185553 28 101 12.9 20.9 0.00 0.00 0.00 77 1009.2
20260507185053 28 109 14.5 20.9 0.00 0.00 0.00 77 1009.1
20260507184553 28 98 11.3 17.7 0.00 0.00 0.00 77 1009.3
20260507184053 28 94 11.3 22.5 0.00 0.00 0.00 77 1009.2
20260507183553 28 105 11.3 22.5 0.00 0.00 0.00 77 1009.2
20260507183054 28 123 12.9 20.9 0.00 0.00 0.00 76 1009.3
20260507182553 28 118 17.7 19.3 0.00 0.00 0.00 76 1009.2
20260507182053 28 104 12.9 14.5 0.00 0.00 0.00 77 1009.4
20260507181553 28 146 8.0 20.9 0.00 0.00 0.00 77 1009.5
20260507181054 28 155 8.0 20.9 0.00 0.00 0.00 77 1009.4
20260507180553 28 120 9.7 16.1 0.00 0.00 0.00 77 1009.4
20260507180053 28 120 3.2 16.1 0.00 0.00 0.00 77 1009.3
20260507175053 28 64 4.8 16.1 0.00 0.00 0.00 78 1009.1
20260507174553 28 132 8.0 20.9 0.00 0.00 0.00 77 1009.1
20260507174053 28 125 9.7 20.9 0.00 0.00 0.00 77 1009.4
20260507173553 28 154 8.0 16.1 0.00 0.00 0.00 77 1009.5
20260507173053 28 85 3.2 16.1 0.00 0.00 0.00 76 1009.4
20260507172553 28 115 11.3 17.7 0.00 0.00 0.00 76 1009.6
20260507172053 28 140 6.4 24.1 0.00 0.00 0.00 76 1009.5
20260507171552 28 145 8.0 24.1 0.00 0.00 0.00 76 1009.6
20260507171052 28 139 11.3 20.9 0.00 0.00 0.00 76 1009.7
20260507170553 28 120 11.3 20.9 0.00 0.00 0.00 76 1009.6
20260507170054 28 109 11.3 24.1 0.00 0.00 0.00 76 1009.7
20260507165553 28 111 9.7 24.1 0.00 0.00 0.00 76 1009.5
20260507164554 28 105 6.4 25.7 0.00 0.00 0.00 76 1009.5
20260507164053 28 106 12.9 25.7 0.00 0.00 0.00 75 1009.5
20260507163553 28 106 12.9 22.5 0.00 0.00 0.00 75 1009.4
20260507163053 28 108 6.4 29.0 0.00 0.00 0.00 75 1009.3
20260507162554 28 110 12.9 29.0 0.00 0.00 0.00 75 1009.6
20260507161053 28 135 11.3 24.1 0.00 0.00 0.00 75 1009.5
20260507160553 28 84 9.7 24.1 0.00 0.00 0.00 75 1009.7
20260507155553 28 120 17.7 19.3 0.00 0.00 0.00 75 1009.8
20260507155053 28 74 4.8 20.9 0.00 0.00 0.00 76 1009.8
20260507154553 29 192 1.6 22.5 0.00 0.00 0.00 75 1009.9
20260507154053 29 110 11.3 22.5 0.00 0.00 0.00 75 1009.9
20260507153553 29 130 11.3 17.7 0.00 0.00 0.00 76 1010.0
20260507153052 29 139 8.0 20.9 0.00 0.00 0.00 74 1009.9
20260507152553 29 128 9.7 20.9 0.00 0.00 0.00 74 1010.1
20260507152053 29 103 9.7 19.3 0.00 0.00 0.00 75 1010.0
20260507151553 29 108 6.4 20.9 0.00 0.00 0.00 76 1010.0
20260507150553 29 102 6.4 17.7 0.00 0.00 0.00 75 1010.2
20260507145552 29 132 1.6 19.3 0.00 0.00 0.00 74 1010.0
20260507145053 29 166 4.8 24.1 0.00 0.00 0.00 74 1010.2
20260507144053 29 93 6.4 20.9 0.00 0.00 0.00 74 1010.5
20260507143553 29 140 11.3 20.9 0.00 0.00 0.00 74 1010.2
20260507143053 29 108 9.7 19.3 0.00 0.00 0.00 73 1010.3
20260507142553 29 118 8.0 20.9 0.00 0.00 0.00 73 1010.4
20260507142053 29 122 8.0 20.9 0.00 0.00 0.00 73 1010.2
20260507141553 29 146 11.3 16.1 0.00 0.00 0.00 73 1010.3
20260507141053 29 144 12.9 20.9 0.00 0.00 0.00 73 1010.2
20260507140554 29 146 12.9 20.9 0.00 0.00 0.00 73 1010.2
20260507135553 29 135 6.4 17.7 0.00 0.00 0.00 73 1010.5
20260507135053 29 131 6.4 19.3 0.00 0.00 0.00 73 1010.2
20260507134053 29 129 8.0 20.9 0.00 0.00 0.00 73 1010.3
20260507133053 29 82 3.2 20.9 0.00 0.00 0.00 73 1010.3
20260507132553 29 109 9.7 20.9 0.00 0.00 0.00 72 1010.0
20260507132053 29 140 9.7 17.7 0.00 0.00 0.00 72 1009.9
20260507131553 29 75 11.3 22.5 0.00 0.00 0.00 72 1010.0
20260507131053 29 122 17.7 22.5 0.00 0.00 0.00 72 1010.0
20260507130553 29 84 6.4 24.1 0.00 0.00 0.00 72 1010.1
20260507130053 29 117 11.3 24.1 0.00 0.00 0.00 71 1009.7